This demonstration page uses our WeatherBlox Daily Observations layout. Learn more.

Left ArrowRight Arrow

Hourly Observations for April 15, 2018

Temp ( °F °C ) Dew Point ( °F °C ) Humidity (%) Winds ( mph kmh ) Pressure ( in mb ) Visibility ( mi km ) Precip ( " mm )
12:59 am 00:59 Mostly Clear 68 20 62 16.7 81 81 S 14 22 30.04 1017 10 16 0.00 0.00
1:59 am 01:59 Mostly Cloudy 68 20 62 16.7 81 81 SSW 13 20 30.04 1017 10 16 0.00 0.00
2:59 am 02:59 Cloudy 68 20 62 16.7 81 81 SSW 10 17 30.04 1017 10 16 0.00 0.00
3:21 am 03:21 Mostly Clear 67 19.4 62 16.7 84 84 SSW 7 11 30.03 1017 10 16 0.00 0.00
3:59 am 03:59 Mostly Clear 66 18.9 62 16.7 87 87 S 6 9 30.05 1018 9 14 0.00 0.00
4:59 am 04:59 Mostly Cloudy 65 18.3 62 16.7 90 90 S 6 9 30.06 1018 9 14 0.00 0.00
5:59 am 05:59 Mostly Cloudy 65 18.3 62 16.7 90 90 SSE 8 13 30.06 1018 9 14 0.00 0.00
6:59 am 06:59 Mostly Cloudy 66 18.9 62 16.7 87 87 S 6 9 30.07 1018 8 13 0.00 0.00
7:59 am 07:59 Mostly Cloudy 68 20 62 16.7 81 81 VRB 6 9 30.07 1018 9 14 0.00 0.00
8:59 am 08:59 Partly Cloudy 71 21.7 63 17.2 76 76 S 13 20 30.07 1018 9 14 0.00 0.00
9:54 am 09:54 Mostly Cloudy 73 23 64 18 74 74 S 9 15 30.06 1018 9 14 0.00 0.00
9:59 am 09:59 Mostly Cloudy 74 23.3 65 18.3 74 74 S 12 19 30.05 1018 9 14 0.00 0.00
10:59 am 10:59 Mostly Cloudy 77 25 65 18.3 66 66 S 9 15 30.04 1017 10 16 0.00 0.00
11:35 am 11:35 Cloudy 77 25 63 17.2 62 62 S 10 17 30.03 1017 10 16 0.00 0.00
11:59 am 11:59 Cloudy with Light Rain 75 23.9 63 17.2 66 66 S 12 19 30.03 1017 6 10 0.00 0.03
12:46 pm 12:46 Cloudy with Light Rain 70 21.1 67 19.4 90 90 S 6 9 30.03 1017 2 3 0.03 0.76
12:59 pm 12:59 Cloudy with Light Rain 70 21.1 67 19.4 90 90 SW 10 17 30.02 1017 2 2 0.06 1.52
1:03 pm 13:03 Cloudy with Light Rain 69 20.6 66 18.9 90 90 SW 12 19 30.03 1017 1 2 0.02 0.51
1:12 pm 13:12 Cloudy with Light Rain 67 19.4 65 18.3 93 93 SW 12 19 30.03 1017 2 3 0.04 1.02
1:15 pm 13:15 Cloudy with Light Rain 67 19.4 64 17.8 91 91 SW 10 17 30.03 1017 3 5 0.04 1.02
1:59 pm 13:59 Cloudy 70 21.1 66 18.9 87 87 SSE 6 9 29.98 1015 10 16 0.04 1.02
2:59 pm 14:59 Cloudy 73 22.8 67 19.4 81 81 SSE 14 22 29.96 1015 10 16 0.00 0.00
3:59 pm 15:59 Cloudy 73 22.8 67 19.4 81 81 SSE 13 20 29.92 1013 10 16 0.00 0.00
4:59 pm 16:59 Cloudy 74 23.3 66 18.9 76 76 S 15 24 29.90 1013 10 16 0.00 0.00
5:20 pm 17:20 Mostly Cloudy 75 23.9 65 18.3 71 71 SSE 10 17 29.88 1012 10 16 0.00 0.00
5:59 pm 17:59 Mostly Cloudy 74 23.3 67 19.4 79 79 SSE 12 19 29.87 1012 10 16 0.00 0.00
6:12 pm 18:12 Mostly Cloudy 74 23.3 67 19.4 79 79 SSE 12 19 29.88 1012 9 14 0.00 0.00
6:59 pm 18:59 Cloudy 75 23.9 67 19.4 76 76 S 15 24 29.86 1011 9 14 0.00 0.00
7:59 pm 19:59 Cloudy 74 23.3 66 18.9 76 76 S 12 19 29.86 1011 10 16 0.00 0.00
8:59 pm 20:59 Cloudy 73 22.8 66 18.9 79 79 S 16 26 29.85 1011 10 16 0.00 0.00
9:59 pm 21:59 Cloudy 73 22.8 66 18.9 79 79 S 15 24 29.83 1010 9 14 0.00 0.03
10:59 pm 22:59 Cloudy with Light Rain 72 22.2 66 18.9 82 82 SSE 15 24 29.80 1009 8 13 0.00 0.03
11:59 pm 23:59 Cloudy 73 22.8 66 18.9 79 79 SSE 18 30 29.77 1008 9 14 0.01 0.25

Powered by AerisWeather